Other Public Products
Issued by NWS Grand Forks, ND

Home | Current Version | Previous Version | Text Only | Print | Product List | Glossary Off
Versions: 1 2 3 4 5 6 7 8 9 10 11 12 13 14 15 16 17 18 19 20 21 22 23 24 25 26 27 28 29 30 31 32 33 34 35 36 37 38 39 40 41 42 43 44 45 46 47 48 49 50

000
FPUS83 KFGF 270831
OPUFGF
PRAIRIE TO PINES WEATHER ROUNDUP
NATIONAL WEATHER SERVICE EASTERN NORTH DAKOTA/GRAND FORKS ND
200 AM CST FRI FEB 27 2015

 **SATELLITE DATA USED TO AUGMENT SKY COVER AT AUTOMATED STATIONS**
 *****  WEATHER ACROSS EASTERN NORTH DAKOTA  *****

CITY           SKY/WX    TMP DP  RH WIND       PRES   REMARKS
GRAND FORKS    CLEAR    -12 -18  74 SW3       30.47S
GRAND FORKS AF CLEAR     -6 -14  67 W6        30.46F WCI -19
GRAND CITY NWS   N/A    -11 N/A N/A W1          N/A
BUXTON           N/A    -11 -14  85 W7          N/A  WCI -26
DEVILS LAKE    PTCLDY   N/A N/A N/A MISG        N/A
FARGO          CLEAR     -7 -13  75 SW3       30.50S
WAHPETON ARPT  SUNNY     -8 -15  71 W6        30.51S WCI -21
$$

 *****  WEATHER ACROSS CENTRAL AND WESTERN NORTH DAKOTA  *****

CITY           SKY/WX    TMP DP  RH WIND       PRES   REMARKS
JAMESTOWN      CLEAR     -9 -15  75 W8        30.44F WCI -25
BISMARCK       CLEAR     -7 -13  75 CALM      30.47F
MINOT          FAIR     -10 -16  74 SW5       30.41F WCI -22
MINOT AFB      PTCLDY   -13 -19  75 W9        30.41F WCI -32
GARRISON         N/A    -13 -18  78 CALM      30.41F
WILLISTON      PTCLDY   -12 -16  82 CALM      30.38F
DICKINSON      CLEAR     -5 -11  75 S9        30.31F WCI -22
HETTINGER      CLEAR     -6 -11  79 SE6       30.35F WCI -19
$$

 *****  OTHER OBSERVATIONS NORTHEAST NORTH DAKOTA  *****

CITY           SKY/WX    TMP DP  RH WIND       PRES   REMARKS
WALHALLA         N/A      0  -9  65 W6        30.42F WCI -12
LANGDON        NOT AVBL
CAVALIER       FAIR       0  -9  65 W7        30.42F WCI -13
GRAFTON        NOT AVBL
CANDO          FAIR     -11 -17  77 W7        30.42S WCI -26
FORT TOTTEN      N/A     -9 -15  73 W3        29.95S
ROLLA          FAIR      -4 -15  59 SW8       30.37S WCI -19
RUGBY          FAIR     -15 -18  84 W7        30.43S WCI -31
 ***** THE ABOVE OBSERVATIONS ARE NON NWS ARE NOT QUALITY
        CONTROLLED AND MAY MIS-REPORT RAIN FOR SNOW...
$$

 *****  OTHER OBSERVATIONS SOUTHEAST NORTH DAKOTA *****

CITY           SKY/WX    TMP DP  RH WIND       PRES   REMARKS
COOPERSTOWN    NOT AVBL
VALLEY CITY    FAIR      -8 -13  77 W10       30.45S WCI -26
OAKES            N/A     -8 -11  84 W7        30.48S WCI -22
GWINNER        SUNNY     -6 -13  71 W8        30.49S WCI -21
BUFFALO        NOT AVBL
WYNDMERE         N/A     -8 -15  71 W7          N/A  WCI -22
 ***** THE ABOVE OBSERVATIONS ARE NON NWS ARE NOT QUALITY
       CONTROLLED AND MAY MIS-REPORT RAIN FOR SNOW...
$$

  *****  WEATHER ACROSS NORTHERN MINNESOTA  *****

CITY           SKY/WX    TMP DP  RH WIND       PRES   REMARKS
FLAG ISLAND    PTCLDY    -6 -11  77 CALM      30.35S
WARROAD        PTCLDY    -6 -11  77 SW7       30.38S WCI -20
ROSEAU         MOCLDY    -9 -15  77 SW6       30.39F WCI -23
HALLOCK        PTCLDY   -15 -20  76 S8        30.43S WCI -32
THF RVR FALLS  MOCLDY   -11 -27  44 SW3       30.42R
HALSTAD          N/A    -10 -17  72 W6          N/A  WCI -23
FOSSTON        PTCLDY   -17 -20  83 S5        30.43S WCI -29
BAUDETTE       PTCLDY   -12 -16  82 SW6       30.36S WCI -26
WASKISH        PTCLDY    -8 -11  84 SW8       30.39S WCI -23
CROOKSTON      PTCLDY   -13 -18  77 S5        30.47F WCI -25
$$
  *****  WEATHER ACROSS CENTRAL AND WEST MINNESOTA  *****

CITY           SKY/WX    TMP DP  RH WIND       PRES   REMARKS
BEMIDJI        CLEAR    -10 -15  80 CALM      30.39S
PARK RAPIDS    CLEAR    -10 -15  78 NW5       30.40R WCI -22
WADENA         CLEAR     -9 -15  77 W6        30.43S WCI -23
DETROIT LAKES  PTCLDY    -8  -9  92 W5        30.44R WCI -19
MOORHEAD       CLEAR     -8  -9  92 CALM      30.50S
FERGUS FALLS   CLEAR     -8 -15  71 W5        30.52S WCI -19
ELBOW LAKE     FAIR      -9 -13  82 W7        30.47S WCI -24
MORRIS MN      CLEAR     -9 -15  77 CALM      30.49S
STAPLES        CLEAR     -9 -15  77 W3        30.43S
WHEATON        CLEAR     -9 -15  77 SW5       30.53S WCI -21
$$
  *****  WEATHER ELSEWHERE ACROSS MINNESOTA  *****

CITY           SKY/WX    TMP DP  RH WIND       PRES   REMARKS
DULUTH         CLEAR     -6 -15  65 W9        30.35R WCI -23
INTRNTL FALLS  PTCLDY    -9 -14  78 W5        30.36S WCI -20
ELY            PTCLDY   -17 -20  83 CALM      30.33S
CLOQUET        CLEAR     -6 -15  65 W10       30.38S WCI -23
BRAINERD       CLEAR     -9 -14  78 CALM      30.44S
HIBBING        PTCLDY   -11 -16  78 CALM      30.36S
ALEXANDRIA     CLEAR     -8 -12  83 W7        30.44F WCI -23
SAINT CLOUD    CLEAR     -4  -9  79 W5        30.48R WCI -15
MINNEAPOLIS    CLEAR      0  -9  65 W7        30.51R WCI -13
$$

  *****  WEATHER ACROSS SOUTH DAKOTA  *****

CITY           SKY/WX    TMP DP  RH WIND       PRES   REMARKS
SIOUX FALLS    CLEAR     -7 -12  79 VRB3      30.53R
BROOKINGS      NOT AVBL
WATERTOWN      CLEAR    -10 -16  74 CALM      30.45S
HURON          PTCLDY   -12 -17  78 W5        30.54S WCI -24
SISSETON         N/A     -6 -12  75 N5        30.49S WCI -17
ABERDEEN       CLEAR    -14 -20  74 SW6       30.51F WCI -28
MITCHELL       CLEAR     -4 -10  75 W5        30.57R WCI -15
PIERRE         CLEAR     -2  -7  79 SW5       30.49S WCI -12
MOBRIDGE       PTCLDY    -9 -15  75 CALM      30.44S
RAPID CITY     PTCLDY    -5 -10  79 CALM      30.31F
$$

  *****  SOME WEATHER IN NEARBY STATES *****

CITY           SKY/WX    TMP DP  RH WIND       PRES   REMARKS
GLASGOW MT     CLEAR      0  -6  76 SE12      30.25F WCI -17
GREAT FALLS MT PTCLDY    12   5  73 S9        29.97F WCI   0
CHEYENNE WY    LGT SNOW   4  -1  80 SE14      30.01S WCI -14
SCOTTSBLUFF NE CLOUDY     7   1  76 SE13      30.26F WCI  -9
OMAHA NE       CLEAR      0  -4  83 NW3       30.61R
DES MOINES IA  CLEAR     -4 -10  75 W6        30.57R WCI -16
DAVENPORT IA   CLEAR    -15 -21  74 W9        30.52R WCI -34
CHICAGO IL     CLEAR      0  -8  69 NW8       30.44R WCI -14
EAU CLAIRE WI  CLEAR     -4 -12  68 CALM      30.46R
LA CROSSE WI   CLEAR     -5 -11  75 CALM      30.51R
$$

  *****  SOME NATIONAL WEATHER *****

CITY           SKY/WX    TMP DP  RH WIND       PRES   REMARKS
LA GUARDIA NY  CLOUDY    21   5  50 N7        30.21R WCI  12
RALEIGH NC     MOCLDY    28  25  88 CALM      30.20R FOG
ATLANTA GA     PTCLDY    32  27  81 NW12      30.20R WCI  23
NEW ORLEANS LA CLOUDY    37  31  78 N17       30.32R
OKLAHOMA CITY  CLOUDY    22   0  38 NE13      30.49S WCI  10
ALBUQUERQUE NM CLOUDY    25  17  72 E22G28    29.96S HAZE    WCI  10
SALT LAKE CITY PTCLDY    30  27  88 SW7       29.88F WCI  23
LOS ANGELES CA PTCLDY    57  53  86 CALM      29.84F
BOISE ID       CLOUDY    36  32  85 CALM      29.87F
SEATTLE WA     LGT RAIN  48  46  93 E8        29.80F
$$

*** WEATHER ACROSS MANITOBA...SASKATCHEWAN AND ONTARIO ***
                ***ONTARIO***

CITY           SKY/WX    TMP DP  RH WIND       PRES   REMARKS
GERALDTON      CLEAR     -8 -13  77 W7        30.16S WCI -22
THUNDER BAY    CLEAR     -6 -13  71 SW7       30.35R WCI -20
SIOUX LOOKOUT  CLEAR    -11 -17  77 VRB2      30.25S
TORONTO        PTCLDY     0  -9  65 NW7       30.33R WCI -13
BIG TROUT LK   CLEAR      0  -9  65 W9        30.01F WCI -16
PICKLE LAKE    NOT AVBL
DRYDEN         CLEAR     -9 -15  77 SW8       30.27S WCI -26
KENORA         CLEAR     -8 -13  77 W9        30.31S WCI -25
$$
                *** MANITOBA***

CITY           SKY/WX    TMP DP  RH WIND       PRES   REMARKS
BRANDON        CLEAR    -13 -18  77 W13       30.39F WCI -34
DAUPHIN        CLEAR      1  -9  60 W15       30.36F WCI -18
ISLAND LAKE    CLEAR      1 -13  51 W9        30.13F WCI -14
PILOT MOUND      N/A     -9 -13  84 W5          N/A  WCI -21
THE PAS        CLOUDY     1 -11  55 W10G18    30.22F WCI -14
THOMPSON       MOCLDY     7  -9  47 W14       30.02F WCI -10
WINNIPEG       CLEAR     -6 -15  65 W10       30.41S WCI -23
LYNN LAKE      PTCLDY     7   0  72 W9        29.97  WCI  -7
CHURCHILL      CRYSTALS   1  -4  78 NW18G24   29.85S WCI -19
GILLAM         PTCLDY     7  -8  51 W15       29.92F WCI -11
$$
                ***SASKATCHEWAN***

CITY           SKY/WX    TMP DP  RH WIND       PRES   REMARKS
ESTEVAN        CLEAR    -17 -22  76 SW6       30.36F WCI -31
KINDERSLEY     PTCLDY    -4  -9  77 SE10      30.14F WCI -21
LLOYDMINSTER   MOCLDY    -4  -9  77 SW8       30.13F WCI -19
PRINCE ALBERT  CLEAR    -13 -17  84 S5        30.27F WCI -25
REGINA         CLEAR    -11 -17  77 SE10      30.32F WCI -30
YORKTON        CLEAR    -13 -17  84 S6        30.33F WCI -27


USA.gov is the U.S. government's official web portal to all federal, state and local government web resources and services.